"Pseudo-MPEC" for P10QA7K

Created 2019 Aug 14 12:07:06 UT using Find_Orb

Click here for an explanation of pseudo-MPECs

 
 Astrometry: 
     P10QA7K  C2019 08 10lEsnaeT\lOt%J:4*wWo9N\3u:.go$3nw(UQm/g`8a?bSmS0l^yZ3F51
     P10QA7K  C2019 08 10SNB@CFT7w6l()UoCmWV3o#fY?3qrm_Lu[F[T/XjU`N0/K#fh3S76F51
     P10QA7K  C2019 08 10@K0-B(T'TOUGw/0/TeI(OY-Ryu@SgVM8f44Ih#q22AstrometryrF51
     P10QA7K  C2019 08 100B(?vmiXBeNU;n.\%5tEI.nk$L7^4!Z@V/ch+?.4u#(]_asY-vA!F51
     P10QA7K pC2019 08 11BF'87@M8i21SPy8oaLDd/(IpU\#+$Y'J:@;ZmS[6?lCoE\?-bcqqL01
     P10QA7K IC2019 08 11EuhWE`[$g_s-S-4kMZ4Bp;g3%^*$YLYkr?LP,2I:f#ntk_GLNC,xL01
     P10QA7K KC2019 08 11_s11vEhU6:tk[N:O;qwic76ie3ucLHuD37A2YPtK??`G35b+2+HIL01
     P10QA7K KC2019 08 11u74/fR5hM4UUhw_jK0/jJWX_scLY1Oredacted;Td=BS0Cgeav-8L01
     P10QA7K KC2019 08 11[xdFa.prf0F)\%n1YpOQlE*BKB)!)B\[`\CH-oi=;LStA.kH_^GCL01
     P10QA7K KC2019 08 11:jn6sI@o_!/BD2)n!F/MS*Hql:sQxAtl1B)^kI.PJ=LI)U=*U2.dH21
     P10QA7K KC2019 08 114VNyat[s+#jn%xy)oK,y[#]6*IEH^%YfX@mSf8YB((!Z'**,7]g:H21
     P10QA7K KC2019 08 11tXxD#G\\ZH:;mV[`6WhX#yca_TD'n_GbnxD(G8(`_xFO/hmhEF+,H21
     P10QA7K ^C2019 08 11.57050901 00 54.218+03 32 24.40   ~8BKM 20.65GVNEOCP568
     P10QA7K ^C2019 08 11.57170201 00 54.362+03 32 26.27   ~8BKM 20.66GVNEOCP568
     P10QA7K ^C2019 08 11.57290601 00 54.502+03 32 28.09   ~8BKM 20.65GVNEOCP568
     P10QA7K pC2019 08 12+_*2-#q.?3r1^s$g5dg0UwxeDHJ*Sc5@JlkY1Y5]DtVHal2A3Bv0L01
     P10QA7K pC2019 08 12uxOsFy#SlMg^sFJR5-v/yJ01kC.A.]?]Vclick?73MSZTtrMtBY0L01
     P10QA7K pC2019 08 12*0sH/D2@iU(1=e*!u$lc+EC_t;3n8l$Bxherej1v,e1hPO.5*)9vL01
     P10QA7K KC2019 08 12FDui)o_pdw=Bsstc+p?k6P3@YAU=KH9qli;P^Q=yJ7sgvD,AZ6TJL01
     P10QA7K KC2019 08 12v0gGX[forrKJgUbAU?rMvdkc:5I[o`5Jd1ZQ282_=\Lryn(@U\=sL01
     P10QA7K KC2019 08 12MZ3=*n2D]6.op9[cLtbGSao5%5D;R=C3P`qxL;[c#*3@vh:W+;0lL01
     P10QA7K KC2019 08 120ELFCAR`d?j$6BQQWnT'q\X9P5DlEkVDqVg8/'WNq[emfpJZ%fvtL01
     P10QA7K pC2019 08 12iS/4y.Y/,PfMhOTyW%5vrexplanation!mv\LcRHeLkr[YKi8[OhL01
     P10QA7K KC2019 08 14!1PVda5y^a!+]7WFiYf;J^P*d?BynepP*:ko:OV;49,k`uJju@Y(H21
     P10QA7K KC2019 08 149U'-@[WJe7eW,Y`bNu!Z@;/kAy@:?yBX.$?)_PSKAr\MQvi%KD9lH21
     P10QA7K KC2019 08 14`H7[!Wut0rRvK![!U`BMvIYsl8x7,jQT'f08b*4]u0bvEQ`:Y6dlH21

Station data:
(568) Mauna Kea  (N19.826116 W155.472200)  US/Hawaii.
(F51) Pan-STARRS 1, Haleakala  (N20.707235 W156.255910)  US/Hawaii.
   Observers N. Primak, A. Schultz, S. Watters, J. Thiel, T. Goggia. Measurer
   PS1 Science Consortium. 1.8-m Ritchey-Chrétien + CCD.
(H21) Astronomical Research Observatory, Westfield  (N39.483057 W87.968270)
   US/Illinois. 0.76-m f/3.0 astrograph + CCD.
(L01) Višnjan Observatory, Tičan  (N45.290900 E13.749300)  Croatia.
   Observers K. Korlević, E. Pettarin. Measurer E. Pettarin. 1.0-m f/2.9
   reflector + CCD.

Orbital elements:  P10QA7K
   Perihelion 2019 Oct 24.962279 +/- 0.507 TT = 23:05:40 (JD 2458781.462279)
Epoch 2019 Aug 14.0 TT = JDT 2458709.5   Earth MOID: 0.2417   Ju: 0.3806
M 355.65241352 +/- 0.7              Ma: 0.0664                AutoNEOCP
n   0.06041479 +/- 0.0103           Peri.   56.48422 +/- 0.58
a   6.43241174 +/- 0.731            Node   349.21058 +/- 0.16
e   0.8173736 +/- 0.0199            Incl.   11.06844 +/- 0.07
P  16.31                   H 19.1   G  0.15   U  9.7  
q 1.17472793 +/- 0.00687    Q 11.6900955 +/- 1.84
From 26 observations 2019 Aug. 10-14; mean residual 0".24
Residuals in arcseconds: 
190810 F51  .04+  .06+    190811 H21  .05-  .06+    190812 L01  .25-  .36+    
190810 F51  .03+  .16+    190811 H21  .10+  .12-    190812 L01  .07-  .07-    
190810 F51  .07+  .18+    190811 H21  .17+  .04+    190812 L01  .10+  .14+    
190810 F51  .06+  .14+    190811 568  .12+  .00     190812 L01  .23+  .28-    
190811 L01  .07+  .35+    190811 568  .14+  .02+    190812 L01  .22-  .25-    
190811 L01  .45-  .02+    190811 568  .09+  .03-    190814 H21  .05-  .07+    
190811 L01  .66-  .71-    190812 L01  .28-  .31+    190814 H21  .24+  .15+    
190811 L01  .01+  .54-    190812 L01  .12-  .25+    190814 H21  .20-  .24-    
190811 L01  .14-  .46-    190812 L01  .25+  .11+    

Ephemerides (geocentric):
Date (UTC) HH   RA              Dec         delta   r     elong  mag " sig PA
---- -- -- --  -------------   -----------  ------ ------ -----  --- ---- ---
2019 08 14 12  01 07 03.313   +04 50 49.42  .72338 1.5380 123.8 20.8 .163 165
2019 08 14 13  01 07 08.655   +04 51 58.57  .72287 1.5376 123.8 20.8 .172 165
2019 08 14 14  01 07 14.000   +04 53 07.79  .72235 1.5373 123.9 20.8 .181 165
2019 08 14 15  01 07 19.347   +04 54 17.08  .72184 1.5369 123.9 20.7 .190 165
2019 08 14 16  01 07 24.698   +04 55 26.43  .72132 1.5366 123.9 20.7 .199 165
2019 08 14 17  01 07 30.050   +04 56 35.85  .72081 1.5362 123.9 20.7 .209 165
2019 08 14 18  01 07 35.406   +04 57 45.34  .72029 1.5359 123.9 20.7 .219 165
2019 08 14 19  01 07 40.764   +04 58 54.89  .71978 1.5355 123.9 20.7 .229 164
2019 08 14 20  01 07 46.125   +05 00 04.51  .71927 1.5352 123.9 20.7 .239 164
2019 08 14 21  01 07 51.489   +05 01 14.19  .71875 1.5348 123.9 20.7 .250 164
2019 08 14 22  01 07 56.855   +05 02 23.94  .71824 1.5345 124.0 20.7 .260 164
2019 08 14 23  01 08 02.224   +05 03 33.76  .71773 1.5341 124.0 20.7 .271 164
2019 08 15 00  01 08 07.596   +05 04 43.64  .71722 1.5338 124.0 20.7 .282 164
2019 08 15 01  01 08 12.971   +05 05 53.60  .71670 1.5334 124.0 20.7 .294 164
2019 08 15 02  01 08 18.348   +05 07 03.61  .71619 1.5331 124.0 20.7 .305 164
2019 08 15 03  01 08 23.728   +05 08 13.70  .71568 1.5327 124.0 20.7 .317 164
2019 08 15 04  01 08 29.110   +05 09 23.85  .71517 1.5324 124.0 20.7 .329 164
2019 08 15 05  01 08 34.496   +05 10 34.07  .71466 1.5320 124.0 20.7 .341 164
2019 08 15 06  01 08 39.884   +05 11 44.36  .71415 1.5316 124.0 20.7 .354 164
2019 08 15 07  01 08 45.275   +05 12 54.71  .71364 1.5313 124.1 20.7 .367 164
2019 08 15 08  01 08 50.669   +05 14 05.13  .71313 1.5309 124.1 20.7 .380 164
2019 08 15 09  01 08 56.065   +05 15 15.62  .71262 1.5306 124.1 20.7 .393 164
2019 08 15 10  01 09 01.465   +05 16 26.18  .71211 1.5302 124.1 20.7 .406 164
2019 08 15 11  01 09 06.867   +05 17 36.80  .71160 1.5299 124.1 20.7 .420 164
2019 08 15 12  01 09 12.272   +05 18 47.50  .71109 1.5295 124.1 20.7 .434 164
2019 08 15 13  01 09 17.679   +05 19 58.26  .71058 1.5292 124.1 20.7 .448 164
2019 08 15 14  01 09 23.090   +05 21 09.08  .71007 1.5288 124.1 20.7 .462 164
2019 08 15 15  01 09 28.503   +05 22 19.98  .70957 1.5285 124.2 20.7 .477 164
2019 08 15 16  01 09 33.919   +05 23 30.94  .70906 1.5281 124.2 20.7 .491 164
2019 08 15 17  01 09 39.338   +05 24 41.98  .70855 1.5278 124.2 20.7 .507 164
2019 08 15 18  01 09 44.759   +05 25 53.08  .70804 1.5274 124.2 20.7 .522 164
2019 08 15 19  01 09 50.184   +05 27 04.24  .70754 1.5271 124.2 20.7 .537 164
2019 08 15 20  01 09 55.611   +05 28 15.48  .70703 1.5267 124.2 20.7 .553 164
2019 08 15 21  01 10 01.041   +05 29 26.79  .70653 1.5264 124.2 20.7 .569 164
2019 08 15 22  01 10 06.474   +05 30 38.16  .70602 1.5260 124.2 20.7 .585 164
2019 08 15 23  01 10 11.910   +05 31 49.61  .70551 1.5257 124.3 20.7 .602 164
2019 08 16 00  01 10 17.348   +05 33 01.12  .70501 1.5253 124.3 20.7 .619 164
2019 08 16 01  01 10 22.790   +05 34 12.70  .70450 1.5250 124.3 20.7 .636 164
2019 08 16 02  01 10 28.234   +05 35 24.35  .70400 1.5246 124.3 20.7 .653 164
2019 08 16 03  01 10 33.681   +05 36 36.07  .70349 1.5243 124.3 20.7 .670 165
2019 08 16 04  01 10 39.131   +05 37 47.85  .70299 1.5239 124.3 20.7 .688 165
2019 08 16 05  01 10 44.584   +05 38 59.71  .70249 1.5236 124.3 20.7 .706 165
2019 08 16 06  01 10 50.039   +05 40 11.64  .70198 1.5232 124.3 20.7 .724 165
2019 08 16 07  01 10 55.498   +05 41 23.63  .70148 1.5229 124.3 20.7 .743 165
2019 08 16 08  01 11 00.960   +05 42 35.70  .70098 1.5225 124.4 20.7 .761 165
2019 08 16 09  01 11 06.424   +05 43 47.83  .70047 1.5222 124.4 20.7 .780 165
2019 08 16 10  01 11 11.891   +05 45 00.03  .69997 1.5218 124.4 20.7 .800 165
2019 08 16 11  01 11 17.361   +05 46 12.31  .69947 1.5215 124.4 20.7 .819 165